Probability
0 0 1 2 2 1 2 3 3 2 3 4 4 3 3 1 0 0 0 1 5 12 14 10 6 6 5 3 1 0 0 0 0 0 0 0 0 0 0 0 0 0 0
0 0 0 1 1 0 2 3 3 3 4 5 4 3 3 2 2 1 1 1 3 7 10 9 7 6 6 4 3 2 2 1 0 0 0 0 0 0 0 0 0 0 0
0 0 0 0 0 0 1 2 3 3 4 6 5 3 3 4 4 4 3 1 1 3 4 6 8 9 9 8 6 5 6 5 2 1 1 0 0 0 0 0 0 0 0
0 0 0 0 0 0 0 1 2 3 3 4 4 3 4 6 6 6 5 3 2 1 1 3 7 10 11 10 9 9 10 9 6 3 2 0 0 0 0 0 0 0 0
0 0 0 0 0 0 0 0 1 2 2 2 2 2 4 6 6 5 5 4 3 2 1 1 2 5 7 9 10 11 12 13 11 6 3 1 0 0 0 0 0 0 0
0 0 0 0 0 0 0 0 0 1 1 1 0 1 3 4 3 3 4 4 4 3 1 1 0 0 1 4 7 10 13 15 14 10 6 3 2 1 1 1 1 1 0
0 0 0 0 0 0 0 1 0 0 0 0 0 1 1 1 1 1 2 3 4 4 3 2 1 1 1 1 3 7 11 13 14 12 9 7 5 3 3 3 4 3 2
0 0 0 0 0 0 0 0 0 0 0 0 0 0 0 0 0 0 1 2 4 5 5 4 2 2 2 2 1 3 6 9 11 11 9 8 7 6 5 4 4 4 3
0 0 0 0 0 0 0 0 0 0 0 0 0 0 0 0 0 0 0 1 2 3 4 4 3 2 2 2 1 1 1 3 6 7 7 7 8 8 6 4 3 2 2
0 0 0 0 0 0 0 0 0 0 0 0 0 0 0 0 0 0 0 0 0 1 3 3 3 2 2 1 1 0 0 1 2 4 5 6 7 7 5 4 3 2 1
0 0 0 0 0 0 0 0 0 0 0 0 0 0 0 0 0 0 0 0 0 0 1 3 4 4 2 1 0 0 0 0 0 1 3 5 5 4 4 4 3 3 2
0 0 0 0 0 0 0 0 0 0 0 0 0 0 0 0 0 0 0 0 0 0 0 2 5 5 3 2 1 0 0 0 0 0 1 4 4 3 3 3 3 3 4
0 0 0 0 0 0 0 0 0 0 0 0 0 0 0 0 0 0 0 0 0 0 0 1 3 4 3 3 2 1 0 0 0 0 1 3 3 2 1 1 1 2 3
0 0 0 0 0 0 0 0 0 0 0 0 0 0 0 0 0 0 0 0 0 0 0 0 1 2 3 3 3 1 1 0 0 0 1 2 2 1 0 0 0 1 1
0 0 0 0 0 0 0 0 0 0 0 0 0 0 0 0 0 0 0 0 0 0 0 0 1 1 2 3 3 2 2 1 0 0 0 1 0 0 0 0 0 0 0
0 0 0 0 0 0 0 0 0 0 0 0 0 0 0 0 0 0 0 0 0 0 0 0 0 0 1 1 1 2 2 1 0 0 0 0 0 0 0 0 0 0 0
0 0 0 0 0 0 0 0 0 0 0 0 0 0 0 0 0 0 0 0 0 0 0 0 0 0 0 0 0 1 1 0 0 0 0 0 0 0 0 0 0 0 0
0 0 0 0 0 0 0 0 0 0 0 0 0 0 0 0 0 0 0 0 0 0 0 0 0 0 0 0 0 0 0 0 0 0 0 0 0 0 0 0 0 0 0
0 0 0 0 0 0 0 0 0 0 0 0 0 0 0 0 0 0 0 0 0 0 0 0 0 0 0 0 0 0 0 0 0 0 0 0 0 0 0 0 0 0 0
0 0 0 0 0 0 0 0 0 0 0 0 0 0 0 0 0 0 0 0 0 0 0 0 0 0 0 0 0 0 0 0 0 0 0 0 0 0 0 0 0 0 0
0 0 0 0 0 0 0 0 0 0 0 0 0 0 0 0 0 0 0 0 0 0 0 0 0 0 0 0 0 0 0 0 0 0 0 0 0 0 0 0 0 0 0
0 0 0 0 0 0 0 0 0 0 0 0 0 0 0 0 0 0 0 0 0 0 0 0 0 0 0 0 0 0 0 0 0 0 0 0 0 0 0 0 0 0 0
0 0 0 0 0 0 0 0 0 0 0 0 0 0 0 0 0 0 0 0 0 0 0 0 0 0 0 0 0 0 0 0 0 0 0 0 0 0 0 0 0 0 0
0 0 0 0 0 0 0 0 0 0 0 0 0 0 0 0 0 0 0 0 0 0 0 0 0 0 0 0 0 0 0 0 0 0 0 0 0 0 0 0 0 0 0
0 0 0 0 0 0 0 0 0 0 0 0 0 0 0 0 0 0 0 0 0 0 0 0 0 0 0 0 0 0 0 0 0 0 0 0 0 0 0 0 0 0 0
0 0 0 0 0 0 0 0 0 0 0 0 0 0 0 0 0 0 0 0 0 0 0 0 0 0 0 0 0 0 0 0 0 0 0 0 0 0 0 0 0 0 0
Wind_Speed
1 2 2 1 2 2 2 2 3 4 4 4 4 5 5 5 5 4 3 8 9 10 12 13 13 12 12 12 11 11 10 11 10 9 9 8 8 8 8 8 8 7 7
2 2 2 2 2 2 2 2 3 3 3 3 4 4 4 4 4 4 3 5 9 10 11 13 13 13 13 12 12 11 10 10 10 9 9 9 9 9 9 9 8 9 9
2 2 2 2 2 3 3 2 3 3 3 3 4 4 3 3 4 4 4 3 4 8 10 12 12 12 13 13 12 12 11 9 9 9 9 9 8 9 9 9 9 8 9
3 3 2 2 2 2 2 2 2 2 3 3 3 3 3 3 4 4 4 3 3 4 7 11 11 11 12 13 13 12 11 10 9 9 9 9 9 9 9 10 10 10 10
4 3 2 3 3 2 2 3 2 2 3 3 3 3 3 3 4 4 4 3 3 3 4 7 10 10 11 12 12 12 10 9 9 9 9 9 9 9 10 10 10 10 10
5 4 3 3 3 2 2 2 3 3 2 3 4 4 4 4 3 3 4 3 2 3 2 3 4 5 8 9 10 11 10 9 9 8 8 8 9 10 11 11 11 11 11
5 4 4 4 3 2 3 3 3 3 2 2 3 4 4 4 4 3 3 2 2 2 2 2 2 3 3 6 8 9 9 9 9 9 9 9 9 10 10 12 12 12 12
4 4 4 3 3 3 3 3 3 2 2 2 2 3 3 3 2 3 2 2 3 2 2 3 2 2 2 2 3 5 7 9 10 10 10 10 11 11 12 12 12 12 12
4 4 5 4 4 3 2 3 3 3 2 2 1 2 2 3 3 2 2 2 2 2 2 2 3 2 3 2 2 4 5 7 10 11 11 12 12 12 12 12 12 12 13
4 4 4 4 4 3 3 3 3 3 3 2 2 2 3 2 2 3 3 2 3 3 3 3 3 3 2 1 2 3 5 6 9 11 11 11 12 12 13 13 13 13 13
3 4 4 4 4 3 3 4 4 3 3 2 2 2 3 3 3 4 5 3 3 3 3 3 3 2 2 2 2 2 4 6 9 11 11 12 11 12 12 12 13 13 12
2 4 4 3 3 3 3 3 3 4 3 3 3 2 2 2 3 3 5 4 4 3 3 3 3 2 2 2 3 4 5 6 8 10 11 11 11 11 12 13 13 13 12
2 3 4 3 3 3 3 3 3 3 3 3 3 3 3 3 3 3 4 4 5 4 3 3 3 2 2 1 2 4 5 7 8 9 10 10 10 10 11 13 14 13 13
2 3 3 3 4 4 4 3 3 3 3 3 4 4 3 3 3 3 3 4 5 4 4 4 2 2 2 1 3 4 4 7 9 9 10 10 10 10 10 11 12 13 13
2 3 3 3 4 4 4 3 3 3 3 3 3 3 3 3 3 3 3 3 4 6 5 4 2 2 1 2 3 3 3 7 9 10 10 9 10 10 10 10 11 11 11
3 3 3 3 4 4 4 3 3 3 3 3 3 3 4 3 3 3 3 4 4 5 6 3 3 3 3 3 5 3 4 8 9 10 10 10 10 10 11 11 11 11 11
3 3 3 4 4 4 4 3 4 4 4 4 4 4 5 4 3 3 3 4 4 4 7 5 3 3 3 4 4 4 4 4 5 10 11 11 11 11 11 11 12 12 11
3 3 3 3 4 4 4 4 4 4 4 5 5 5 5 4 4 4 3 4 4 4 5 7 4 4 4 4 4 4 4 4 4 9 11 11 11 11 12 12 12 12 12
3 3 3 3 4 4 4 4 4 5 5 5 5 5 5 4 5 4 4 4 4 4 4 5 5 4 3 3 4 4 5 4 5 7 8 9 10 11 12 12 12 12 11
2 3 3 3 4 4 4 4 4 5 5 5 5 4 4 4 4 5 5 5 4 5 4 5 4 4 4 3 3 4 5 3 5 5 6 7 9 11 11 12 12 11 11
3 3 3 3 3 3 3 4 5 5 4 4 4 4 4 5 6 5 5 5 4 4 4 5 5 4 4 4 4 3 5 4 5 4 3 4 5 5 6 9 10 11 11
3 3 3 3 3 3 5 7 6 4 4 4 5 4 5 5 6 8 9 9 7 6 6 5 5 5 6 5 4 4 4 5 5 2 3 6 4 5 5 5 9 11 12
3 3 3 3 3 4 6 7 7 5 4 4 4 4 4 4 6 4 6 8 8 9 9 7 7 7 6 5 5 5 5 6 6 5 4 7 4 6 5 6 11 12 12
3 3 3 3 3 4 6 7 8 4 4 4 4 4 4 4 5 5 5 5 5 6 8 6 6 6 6 5 5 6 6 6 5 4 4 6 4 5 6 5 10 11 10
3 3 3 3 3 4 6 7 7 3 3 4 4 4 5 5 7 9 6 5 6 6 7 9 9 9 9 9 7 4 3 4 6 4 3 4 4 5 5 5 6 9 10
3 3 3 3 3 3 6 7 6 2 3 4 4 4 6 7 9 10 6 5 6 6 6 6 6 6 5 6 7 5 4 4 5 4 2 2 3 4 5 3 3 4 6
Wind_Direction
310 315 304 298 285 278 267 264 266 267 262 255 252 250 243 232 232 231 213 204 207 213 221 227 229 228 228 229 232 232 231 232 227 225 226 228 232 238 244 248 251 254 257
316 317 310 305 300 298 284 267 271 276 273 270 269 268 264 252 243 236 219 208 207 211 220 227 231 232 233 234 235 233 232 231 228 226 228 231 235 239 244 247 251 254 256
320 315 303 304 305 305 306 304 296 297 293 287 282 279 274 267 265 252 237 214 206 211 216 226 235 237 236 238 239 236 231 225 224 227 232 234 237 240 243 247 251 254 256
338 325 313 302 303 312 313 311 305 307 299 293 289 286 283 275 266 260 250 232 212 205 214 221 228 236 239 241 242 241 236 226 225 228 232 235 240 244 246 249 251 253 256
345 338 325 317 320 312 305 304 310 300 293 294 289 286 287 283 277 271 259 249 237 219 209 215 221 229 236 240 242 241 239 234 230 231 237 241 243 246 248 251 253 256 257
349 344 328 325 325 317 313 311 300 298 295 297 298 295 288 282 280 275 266 257 250 243 227 213 212 226 231 235 240 242 244 242 237 234 239 246 251 253 254 254 255 258 261
348 342 330 325 324 316 311 310 306 307 307 313 305 300 281 263 259 260 268 281 281 275 261 232 212 214 223 227 235 245 249 249 249 243 243 247 253 257 261 261 260 260 262
346 338 332 326 323 317 320 318 317 310 309 319 295 294 298 293 280 268 251 250 267 276 273 262 234 214 224 220 236 250 261 256 255 254 253 253 254 258 261 265 268 265 264
344 336 330 329 326 322 310 311 306 297 294 292 277 260 274 276 310 284 271 257 260 261 266 268 260 250 238 220 222 240 259 265 259 256 258 256 256 258 260 263 268 270 269
343 337 331 330 328 324 319 312 316 302 288 285 292 282 267 273 279 295 292 291 285 268 265 266 256 252 239 223 233 259 260 261 265 265 262 263 260 259 260 263 266 270 273
339 336 336 335 332 327 324 321 319 313 298 280 276 284 283 289 271 265 281 288 288 272 266 262 251 246 244 238 233 270 286 272 266 269 271 268 268 266 264 266 267 267 271
334 336 333 331 328 324 319 311 312 314 306 295 287 280 275 268 271 266 270 281 282 278 275 264 250 231 236 239 255 283 284 282 274 271 274 277 273 270 269 271 270 270 271
323 328 333 329 325 318 312 308 303 301 299 294 288 283 281 270 267 267 270 280 281 281 272 260 245 227 246 250 260 287 278 284 282 278 279 281 282 280 277 275 273 272 272
309 313 318 321 319 315 313 309 297 289 290 286 288 284 281 282 278 270 268 277 284 278 270 268 267 230 230 249 278 286 272 286 285 282 281 283 286 285 279 277 278 276 274
302 315 316 315 312 313 311 306 294 294 294 288 286 286 283 284 280 276 272 265 265 276 272 264 267 269 272 260 272 263 264 280 286 282 279 282 285 285 280 278 279 280 281
301 300 302 304 304 305 307 308 303 297 292 287 283 282 278 279 275 272 271 272 265 264 272 273 273 289 284 291 285 273 267 284 285 281 277 278 282 283 280 278 278 277 279
293 295 300 303 303 302 304 309 305 301 293 289 286 284 280 278 277 269 267 266 266 263 269 282 284 290 274 270 278 270 272 262 272 278 277 278 280 281 282 278 278 277 277
296 297 302 306 306 306 308 309 308 308 299 293 291 285 285 286 286 278 269 266 266 263 265 277 283 286 282 269 269 277 286 284 279 281 280 281 281 282 283 280 278 276 275
295 299 302 303 304 305 308 307 306 306 301 294 292 285 282 284 282 284 282 275 272 275 269 272 279 283 287 281 282 283 283 282 287 283 277 277 280 284 285 283 280 275 274
284 289 293 294 295 297 302 308 312 306 304 300 298 293 286 281 283 285 285 282 278 278 276 273 279 283 282 278 268 279 288 284 288 283 275 281 283 284 284 284 283 278 275
282 283 287 289 293 295 309 318 311 305 305 305 303 300 296 287 287 290 290 287 281 273 276 277 278 286 284 282 273 278 290 296 290 269 272 279 280 273 272 278 280 277 276
270 274 278 288 295 302 314 316 318 310 306 304 303 306 302 295 293 294 292 290 287 281 276 273 276 275 276 279 280 282 293 298 292 268 291 287 278 275 272 263 275 281 278
260 266 273 280 286 290 304 312 317 312 303 301 299 299 301 305 308 299 296 295 294 291 281 271 268 268 269 269 271 273 272 277 280 286 290 280 268 271 274 278 282 281 281
252 257 265 272 279 287 302 312 314 307 297 296 297 293 292 298 303 305 301 297 288 288 285 276 264 267 267 263 255 262 269 282 288 285 280 276 276 277 287 279 277 278 284
252 255 261 267 273 286 298 306 312 304 300 300 303 308 305 300 305 308 305 298 295 290 294 292 286 282 285 286 284 277 271 280 290 287 269 265 280 298 286 272 270 280 288
252 262 268 265 267 277 292 300 305 299 299 300 302 302 305 309 311 311 303 296 295 294 296 298 291 284 280 276 284 269 256 265 285 283 245 268 282 306 294 268 272 286 282